TimeEDT,TemperatureF,Dew PointF,Humidity,Sea Level PressureIn,VisibilityMPH,Wind Direction,Wind SpeedMPH,Gust SpeedMPH,PrecipitationIn,Events,Conditions,WindDirDegrees,DateUTC
12:00 AM,55.4,50.0,82,30.02,15.0,North,8.1,-,N/A,,Clear,360,2013-09-26 04:00:00
1:00 AM,53.6,48.2,82,30.02,15.0,North,5.8,-,N/A,,Clear,360,2013-09-26 05:00:00
2:00 AM,54,49,76,30.03,15,NNW,6.9,,,,,330,2013-09-26 06:00:00
2:00 AM,53.6,48.2,82,30.03,15.0,North,5.8,-,N/A,,Clear,350,2013-09-26 06:00:00
3:00 AM,51.8,48.2,88,30.02,15.0,NNW,3.5,-,N/A,,Partly Cloudy,330,2013-09-26 07:00:00
4:00 AM,51.8,48.2,88,30.03,15.0,NNW,5.8,-,N/A,,Partly Cloudy,340,2013-09-26 08:00:00
5:00 AM,51.8,48.2,88,30.04,15.0,North,3.5,-,N/A,,Clear,350,2013-09-26 09:00:00
6:00 AM,50.0,46.4,87,30.05,15.0,North,5.8,-,N/A,,Clear,350,2013-09-26 10:00:00
7:00 AM,51.8,46.4,82,30.07,15.0,NNW,6.9,-,N/A,,Partly Cloudy,340,2013-09-26 11:00:00
8:00 AM,52,48,80,30.09,15,NNW,6.9,,,,Clear,330,2013-09-26 12:00:00
8:00 AM,51.8,48.2,88,30.08,15.0,NNW,6.9,-,N/A,,Partly Cloudy,330,2013-09-26 12:00:00
9:00 AM,55.4,48.2,77,30.09,15.0,North,4.6,-,N/A,,Partly Cloudy,10,2013-09-26 13:00:00
10:00 AM,59.0,50.0,72,30.12,15.0,North,3.5,-,N/A,,Partly Cloudy,10,2013-09-26 14:00:00
11:00 AM,64.4,50.0,59,30.12,15.0,NNE,3.5,-,N/A,,Partly Cloudy,20,2013-09-26 15:00:00
12:00 PM,68.0,48.2,49,30.11,15.0,East,3.5,-,N/A,,Partly Cloudy,80,2013-09-26 16:00:00
1:00 PM,68.0,53.6,60,30.11,15.0,South,8.1,-,N/A,,Partly Cloudy,170,2013-09-26 17:00:00
2:00 PM,69,50,41,30.11,15,SSE,9.2,,,,Clear,150,2013-09-26 18:00:00
2:00 PM,69.8,50.0,49,30.11,15.0,SSE,8.1,-,N/A,,Partly Cloudy,160,2013-09-26 18:00:00
3:00 PM,68.0,48.2,49,30.11,15.0,SSE,9.2,-,N/A,,Partly Cloudy,150,2013-09-26 19:00:00
4:00 PM,69.8,46.4,43,30.10,15.0,SE,6.9,-,N/A,,Partly Cloudy,140,2013-09-26 20:00:00
5:00 PM,68.0,46.4,46,30.11,15.0,SSE,6.9,-,N/A,,Partly Cloudy,150,2013-09-26 21:00:00
6:00 PM,66.2,46.4,49,30.12,15.0,South,5.8,-,N/A,,Partly Cloudy,170,2013-09-26 22:00:00
7:00 PM,64.4,44.6,49,30.13,15.0,SSE,4.6,-,N/A,,Partly Cloudy,160,2013-09-26 23:00:00
8:00 PM,63,45,40,30.14,15,South,3.5,,,,,170,2013-09-27 00:00:00
8:00 PM,62.6,44.6,52,30.14,15.0,South,2.3,-,N/A,,Clear,180,2013-09-27 00:00:00
9:00 PM,62.6,44.6,52,30.14,15.0,WSW,2.3,-,N/A,,Clear,240,2013-09-27 01:00:00
10:00 PM,62.6,46.4,55,30.15,15.0,WNW,4.6,-,N/A,,Clear,300,2013-09-27 02:00:00
11:00 PM,59.0,48.2,67,30.16,15.0,North,5.8,-,N/A,,Partly Cloudy,10,2013-09-27 03:00:00